P/2012 B1 ( PanSTARRS )

Japanese version
Home page
Updated on September 21, 2014

---------------------------------------------------------------------

* Profile

Discovery Date January 25, 2012
Magnitude 19.7 mag
Discoverer Pan-STARRS 1 telescope (Haleakala)

* Pictures

* Orbital Elements

Epoch 2013 July 7.0 TT = JDT 2456480.5
T 2013 July 23.10895 TT                                 MPC
q   3.8251614            (2000.0)            P               Q
n   0.05958137     Peri.  162.17636     -0.94742362     +0.31023289
a   6.4922570      Node    36.19695     -0.30736211     -0.81421337
e   0.4108118      Incl.    7.62723     -0.08897759     -0.49072614
P  16.5
From 969 observations 1997 June 1-2014 Jan. 22, mean residual 0".5.

* Finding Charts

* Magnitudes Graph

        m1 = 3.0 + 5 log d + 17.0 log r(t - 100)

---------------------------------------------------------------------

The orbital elements are published on M.P.E.C. 2014-B85.
The charts are made with StellaNavigator Ver.8 (AstroArts).
The magnitudes graphs are made with Comet for Windows.

---------------------------------------------------------------------

Copyright(C) Seiichi Yoshida (comet@aerith.net). All rights reserved.